GFSSW_850_thetae_024.txt.gz
Theta_e
314 314 315 315 316 316 316 316 315 315 314 315 316 318 315 314 313 314 315 316 316 316 316 317 317 316 317 317 317 316 321 321 320 318 319 313 315 310 311 311 310 310 311 311 309
311 311 311 312 312 313 314 315 315 315 314 314 314 316 317 315 314 314 316 315 316 315 316 317 317 317 318 317 316 319 321 320 318 317 318 314 314 314 312 312 311 310 312 311 310
311 311 310 310 310 310 311 311 312 313 313 313 313 314 316 316 315 316 315 315 315 314 317 317 318 316 318 317 316 316 319 317 316 314 314 315 313 313 314 315 315 314 312 311 310
313 313 313 313 313 312 311 310 310 311 311 312 312 313 314 316 317 317 315 316 314 314 316 317 318 317 318 319 315 318 314 315 315 314 313 314 312 312 312 317 315 314 313 312 310
313 313 313 313 313 313 312 312 311 310 310 310 311 312 314 315 315 316 315 315 313 313 314 317 318 317 320 317 314 317 315 314 314 313 313 311 313 314 312 314 313 313 312 311 310
314 314 314 314 314 313 313 312 311 311 310 309 310 311 313 315 313 315 316 314 313 312 313 315 318 317 315 316 317 315 314 315 313 314 312 313 314 310 315 314 312 312 312 311 311
314 314 314 314 313 313 313 313 312 311 310 310 310 311 313 313 313 314 316 314 313 313 312 314 317 316 315 315 312 312 315 315 313 313 314 311 315 314 315 313 311 311 311 310 310
314 314 314 314 314 314 313 313 313 311 311 310 310 312 313 312 314 315 315 315 313 312 311 313 316 315 313 311 312 315 315 319 315 312 311 312 317 318 315 310 311 310 308 308 310
313 313 314 314 314 314 314 313 312 311 310 310 311 312 315 313 314 315 316 313 312 311 312 313 315 314 312 316 319 316 318 317 316 312 312 313 318 317 313 309 311 312 310 308 307
307 309 312 313 313 313 313 312 311 310 310 312 313 315 313 314 315 316 315 312 311 311 312 314 314 317 315 318 317 318 317 317 317 314 311 314 315 315 314 309 311 313 312 309 306
307 306 307 310 312 312 312 310 310 310 311 313 314 315 313 314 315 315 314 311 310 311 314 314 317 318 318 318 317 314 315 316 318 311 313 315 314 314 314 313 312 312 312 311 307
308 307 306 306 309 310 309 307 308 309 310 310 311 312 313 314 314 315 314 312 311 314 313 315 316 317 315 313 314 315 317 318 317 309 310 313 312 312 312 312 312 312 313 312 308
310 309 307 305 307 308 307 307 308 311 313 311 311 310 311 311 312 313 313 312 313 313 314 315 316 310 313 314 314 315 317 318 315 311 308 308 312 312 311 309 310 311 311 311 309
307 308 309 306 305 306 307 309 311 312 310 309 308 310 311 312 311 311 312 312 311 314 313 314 313 313 313 315 314 317 314 313 312 312 317 309 316 315 314 312 311 312 313 310 310
310 309 308 306 306 307 309 311 311 306 311 308 308 309 313 311 308 309 309 310 313 312 313 315 311 311 314 315 313 316 307 309 309 311 309 314 312 314 307 310 312 313 313 311 309
314 312 311 309 305 306 309 310 311 307 307 309 311 311 312 310 308 307 308 308 309 312 310 313 306 309 313 305 307 305 308 308 306 309 314 315 314 314 312 312 312 312 312 311 310
316 313 312 311 307 305 307 309 309 306 305 308 312 310 311 312 310 309 309 310 312 313 314 313 311 307 306 310 306 308 313 317 320 318 318 309 309 312 311 311 311 314 314 309 309
318 315 314 313 310 309 308 310 307 309 309 309 311 309 313 312 312 310 309 311 309 310 312 316 315 309 308 313 316 310 314 320 321 317 317 307 310 313 311 311 311 308 309 308 307
319 316 315 315 313 310 308 309 308 309 308 308 311 312 312 311 311 310 311 312 312 310 314 314 315 304 303 304 308 309 312 311 316 305 312 314 315 312 309 309 308 306 306 307 307
319 317 316 317 314 310 308 308 308 308 306 309 309 311 311 312 310 311 312 311 312 309 313 313 315 307 301 302 301 306 306 311 313 319 318 316 316 316 312 310 309 308 308 310 308
318 314 315 315 311 311 310 308 308 306 306 308 309 309 309 310 312 310 312 311 311 310 309 311 314 311 303 305 311 304 308 306 307 310 316 316 315 311 311 310 310 310 310 310 309
316 314 314 313 311 311 311 310 307 307 305 308 307 308 309 309 309 311 311 311 310 308 310 310 313 317 314 302 300 305 309 310 313 313 311 313 314 309 310 310 309 308 308 309 310
315 314 313 312 312 309 310 310 309 308 308 307 307 308 308 308 307 309 310 309 308 309 309 308 312 317 316 304 300 305 304 307 309 310 313 315 313 311 311 310 310 308 308 308 309
316 312 307 309 311 312 312 312 311 309 309 306 306 306 307 307 307 308 309 307 306 309 307 309 312 314 313 312 308 308 305 305 309 312 313 312 312 312 312 311 310 310 307 307 308
315 312 307 306 308 311 312 313 314 312 308 308 307 307 308 309 309 308 309 309 304 305 307 309 312 312 313 313 311 311 310 309 307 308 310 311 311 311 311 311 311 310 309 309 308
311 312 306 309 308 308 310 312 313 314 313 310 310 311 308 308 309 313 309 308 309 303 307 306 311 310 310 310 310 311 311 311 311 311 311 309 308 309 309 309 309 309 308 308 307
306 309 308 308 308 309 309 309 311 312 312 311 311 310 311 308 308 309 309 310 309 309 308 306 308 310 313 312 311 311 311 310 311 310 310 311 311 311 311 310 309 309 309 308 307

GFSSW_850_thetae_027.txt.gz
Theta_e
312 312 313 313 314 314 314 315 315 315 314 314 314 317 316 315 313 314 315 316 316 316 316 316 316 316 318 320 319 318 322 324 323 322 322 318 318 315 315 317 314 314 315 315 312
310 310 310 310 310 310 311 311 312 313 313 313 313 314 316 316 315 314 315 316 316 316 315 317 318 317 320 321 320 321 324 324 321 321 320 319 318 318 315 316 316 315 313 313 310
312 312 313 313 312 312 311 310 310 310 311 311 312 313 314 316 316 318 317 315 315 315 315 317 318 318 320 320 320 321 322 321 320 318 317 318 317 317 316 318 318 318 316 312 309
313 313 313 313 313 313 313 312 312 311 310 310 310 311 313 315 319 317 316 315 315 314 315 317 317 318 320 322 320 320 320 319 319 317 316 317 317 317 316 318 318 318 318 315 312
314 314 314 314 314 314 314 313 313 312 311 310 309 310 312 316 317 315 316 315 314 313 313 316 319 320 321 321 319 319 321 318 317 316 316 315 315 317 317 317 317 315 315 313 312
314 314 314 314 314 314 314 314 314 313 312 311 310 309 311 315 315 314 316 315 314 312 312 315 318 319 318 318 319 318 318 318 317 317 316 315 317 315 318 317 317 316 313 312 311
314 314 314 315 315 315 315 314 314 314 313 312 310 309 313 314 313 313 313 315 313 312 312 312 315 317 319 320 317 316 317 319 318 317 317 315 317 317 317 315 316 316 314 312 312
312 314 314 315 315 315 315 315 314 314 313 312 310 311 315 314 312 313 313 315 314 313 312 312 314 316 317 315 316 317 318 319 320 317 315 315 319 319 318 316 315 315 315 313 312
306 307 308 311 313 314 314 314 314 314 313 311 311 312 315 314 313 313 315 314 313 312 311 312 314 317 315 318 320 320 320 320 320 316 316 316 319 319 317 315 315 316 316 315 313
309 307 307 306 307 310 312 313 313 313 312 311 313 315 314 314 314 315 315 313 311 311 313 314 316 318 319 319 320 319 320 319 319 319 316 317 316 318 317 317 316 315 315 315 315
311 311 309 307 306 307 308 311 313 313 310 315 317 317 314 314 315 314 314 312 311 313 316 316 317 319 319 320 319 319 319 318 318 317 317 318 317 318 318 317 317 316 316 316 314
310 309 310 309 306 305 307 309 309 309 310 311 310 311 313 314 315 314 314 312 313 315 316 317 317 318 318 318 318 318 318 318 318 318 314 317 317 318 317 317 316 315 315 315 315
318 315 308 308 308 305 307 307 308 308 313 313 311 311 312 311 313 315 314 313 314 316 316 317 317 315 316 317 317 317 317 318 318 318 313 314 315 316 316 315 314 314 314 314 314
319 319 317 308 307 307 308 307 309 311 310 312 310 312 310 312 311 312 313 313 314 315 315 316 316 316 316 315 316 317 317 318 318 318 318 314 317 318 317 317 316 314 314 315 315
320 318 318 313 307 309 308 310 310 306 316 311 310 309 313 312 310 309 310 310 314 314 315 315 316 314 315 316 316 316 312 314 316 317 317 316 317 316 315 315 314 314 314 315 315
322 319 318 316 310 307 308 310 309 310 314 311 311 312 314 312 310 308 309 309 310 313 314 314 310 313 315 310 311 310 312 313 312 314 317 317 317 317 317 314 314 313 313 314 313
320 321 319 316 314 309 309 309 309 309 310 314 313 313 313 315 313 310 310 310 313 314 315 316 315 313 310 313 309 311 315 318 322 321 320 318 317 317 316 315 314 314 314 313 311
322 322 319 317 317 312 309 310 308 311 313 311 312 313 314 315 314 312 313 313 312 314 315 317 317 314 310 314 317 312 316 320 324 320 320 316 316 316 316 315 314 313 313 312 309
323 322 318 316 316 314 310 311 312 313 313 312 313 312 313 314 314 314 314 315 315 313 315 315 315 308 309 308 313 313 313 315 319 319 320 315 316 317 315 314 313 312 310 310 309
319 318 318 318 317 312 309 309 313 313 311 311 311 312 313 314 313 313 314 315 315 314 314 315 316 312 304 305 306 310 310 314 315 320 319 317 319 320 318 315 313 312 311 311 311
319 317 317 317 316 311 308 309 312 310 309 308 310 312 313 314 314 313 313 314 314 314 313 314 315 313 306 308 312 307 310 309 310 316 320 320 318 315 315 316 314 313 311 311 312
317 315 315 315 311 309 307 308 310 312 308 308 308 309 310 311 312 311 313 314 313 312 311 312 315 316 315 312 305 309 313 313 314 315 313 315 316 312 313 313 314 312 310 311 310
315 316 313 314 315 307 308 309 309 313 312 309 309 309 308 308 308 310 311 312 311 311 312 310 313 316 315 310 304 308 310 310 313 312 314 316 315 313 313 314 311 310 311 310 310
311 314 308 310 313 313 310 311 312 312 313 311 309 308 308 308 310 309 311 312 311 310 309 310 313 313 313 313 312 312 310 310 310 313 313 313 313 313 313 313 313 313 312 312 311
308 314 310 309 310 312 312 312 313 314 313 312 312 310 311 313 313 311 310 310 309 306 308 310 311 312 312 312 311 311 311 310 309 311 312 313 312 313 313 313 313 312 311 310 310
305 310 307 309 310 310 311 312 313 314 314 314 313 312 311 312 313 317 313 312 312 306 308 309 311 311 311 311 311 311 311 312 312 312 312 311 311 311 311 311 311 311 311 310 310
301 301 299 303 307 310 311 312 312 313 313 314 314 312 313 311 311 312 313 314 312 310 309 308 309 311 312 312 312 312 312 312 312 312 312 313 313 313 314 313 312 312 311 311 311

GFSSW_850_thetae_030.txt.gz
Theta_e
311 311 311 311 311 311 311 311 312 313 313 313 313 314 316 316 315 314 315 316 317 316 316 316 317 316 318 320 319 319 320 322 324 323 322 318 318 317 318 317 317 317 317 316 316
311 311 311 311 311 311 311 310 310 310 311 311 312 313 313 315 316 316 316 315 316 316 315 317 318 318 319 321 321 321 324 325 321 320 320 319 318 318 316 316 317 316 315 315 314
312 313 313 313 313 313 313 312 312 311 310 310 310 311 312 313 315 317 317 317 315 315 315 317 317 319 320 321 321 320 321 321 320 320 318 318 318 318 316 315 317 317 316 315 313
313 313 313 313 314 314 314 314 313 313 312 311 310 310 310 313 319 318 315 317 315 315 314 316 317 319 319 322 321 320 320 320 320 318 317 317 318 318 317 317 318 318 318 318 316
314 314 314 314 314 314 314 314 314 314 314 312 311 310 310 314 315 315 316 315 314 314 314 315 317 319 321 321 321 319 319 319 319 317 316 316 316 315 317 317 317 317 317 317 317
314 314 314 314 314 315 315 315 315 314 314 314 312 310 309 315 315 315 315 314 314 314 313 314 317 319 319 319 318 318 318 317 318 317 316 315 316 316 316 317 317 318 317 316 316
311 312 313 314 314 314 315 315 315 315 315 314 313 310 310 313 314 314 313 313 314 313 313 314 315 316 319 319 319 317 315 316 317 317 316 317 314 314 316 317 317 317 317 316 315
307 307 307 307 308 310 312 313 314 314 315 314 313 310 312 314 314 315 314 313 314 313 312 314 313 315 317 317 317 316 316 317 319 317 315 315 315 316 318 317 317 316 316 316 316
312 311 310 309 307 307 307 308 311 312 313 313 312 311 316 315 315 314 313 313 313 313 312 312 312 316 316 316 316 317 317 317 319 318 314 313 315 318 318 317 316 316 315 316 316
310 310 310 311 310 308 308 307 307 308 311 311 312 316 314 315 314 313 314 313 313 312 311 312 314 315 315 315 316 318 317 317 317 316 315 314 313 314 317 316 316 317 317 316 316
319 316 312 309 308 310 309 307 312 314 312 313 316 315 316 315 314 313 314 313 312 313 313 314 314 315 315 316 316 317 317 317 317 317 315 314 315 315 316 316 317 317 317 317 317
322 322 321 319 309 308 307 308 309 309 310 308 310 312 315 315 315 314 313 312 312 313 313 315 316 316 316 316 316 316 316 316 316 315 314 314 315 315 314 315 316 316 316 316 316
322 322 322 322 319 308 307 307 307 307 313 311 310 311 311 312 314 314 313 312 313 314 314 314 316 316 316 316 315 315 315 315 315 315 312 313 312 313 313 314 315 315 315 315 315
322 322 321 322 317 311 310 309 308 310 310 312 313 312 312 312 311 313 314 313 313 314 314 314 315 315 314 314 314 314 314 315 315 314 315 313 314 314 314 313 312 314 315 316 315
322 322 321 320 319 314 310 308 310 307 312 313 309 310 313 312 310 311 311 312 313 313 314 314 314 314 314 314 314 315 312 313 314 315 315 315 314 313 313 312 312 311 316 316 314
323 322 321 320 319 319 309 309 310 310 309 312 311 312 313 312 311 308 309 309 310 312 311 312 312 312 314 310 312 310 312 312 312 311 313 313 314 313 312 312 313 311 315 314 313
324 323 322 321 318 318 315 309 310 308 312 314 314 312 313 314 313 309 310 309 310 312 311 313 312 312 310 312 309 311 314 315 316 313 315 312 313 314 313 311 310 310 314 313 313
323 322 321 321 318 317 311 311 310 315 315 313 313 314 314 313 314 311 312 311 310 311 313 316 317 313 309 312 314 310 313 315 315 313 315 314 313 313 313 312 313 313 314 313 312
321 321 320 323 318 317 309 310 312 318 316 314 313 312 312 312 313 313 311 312 312 310 313 313 313 308 309 309 312 312 311 313 314 307 311 313 312 312 311 310 310 311 312 311 311
316 317 317 319 319 314 308 314 310 314 313 310 311 311 312 312 313 313 313 313 313 312 312 313 314 310 305 306 307 308 309 312 312 310 310 312 310 313 314 313 309 309 309 311 311
312 316 316 317 318 312 310 310 314 312 312 313 315 312 310 308 310 311 312 312 313 314 312 312 313 310 305 306 309 306 308 308 310 313 312 312 313 309 314 313 311 308 311 312 311
310 315 316 316 313 311 313 311 313 314 313 312 309 310 312 311 309 308 309 309 310 312 312 311 313 314 312 310 306 308 310 309 311 312 310 312 315 310 310 312 310 309 312 311 311
310 313 314 315 316 314 307 311 312 313 313 314 313 311 310 309 310 311 311 311 311 311 311 310 312 314 313 310 304 307 308 310 311 311 313 314 313 311 312 311 309 308 311 311 310
308 312 311 311 314 315 316 313 313 312 312 313 313 312 311 313 311 313 312 311 311 311 310 311 311 312 314 312 311 311 309 308 309 311 312 312 312 312 311 311 311 312 312 312 312
304 308 310 310 308 311 312 314 315 314 312 313 312 313 312 313 313 311 310 311 311 310 309 308 311 311 311 312 311 310 310 310 309 309 310 310 310 310 311 311 311 312 312 311 311
301 305 303 303 304 307 308 309 312 313 313 313 313 314 313 313 314 316 313 313 313 309 310 309 310 309 310 309 309 310 309 310 309 310 310 310 309 309 309 310 310 309 310 310 311
298 299 298 300 303 304 306 308 309 309 309 311 313 314 314 314 312 312 313 314 314 313 310 308 309 310 312 310 310 311 310 310 310 310 310 310 310 310 310 310 310 311 311 311 312

GFSSW_850_thetae_033.txt.gz
Theta_e
310 310 311 311 311 311 311 310 310 310 310 311 312 312 313 314 316 316 315 316 317 316 316 316 317 317 318 319 320 319 314 315 318 320 319 317 316 318 318 317 317 317 317 317 318
311 312 312 312 313 313 313 312 312 312 311 310 310 310 311 312 313 314 315 316 315 316 316 315 318 318 318 320 320 319 315 317 318 317 318 317 316 317 316 315 316 317 317 317 316
312 312 313 313 313 313 313 313 313 313 312 312 311 310 310 311 312 314 317 316 316 315 316 315 318 317 318 319 320 318 316 317 319 319 317 317 316 317 316 313 316 317 317 316 316
313 313 313 313 313 314 314 314 314 314 314 313 312 311 310 310 310 318 316 315 317 316 315 314 316 318 318 318 321 318 318 319 319 319 318 316 316 316 316 317 318 318 317 317 316
314 314 314 314 314 314 314 314 315 315 315 314 313 312 310 311 312 313 313 315 315 316 314 314 317 318 317 318 318 317 317 319 319 318 317 317 315 314 316 317 317 317 317 317 317
311 311 312 313 313 314 314 314 315 315 315 315 314 312 310 313 313 314 315 314 314 314 314 314 315 317 318 317 316 317 317 317 317 317 316 315 314 315 316 317 317 317 317 317 316
309 309 308 308 308 308 309 310 312 313 314 314 314 312 310 314 314 314 314 313 313 313 313 313 314 316 316 317 317 317 315 312 314 316 314 315 313 312 317 316 317 317 317 317 317
312 312 312 312 312 311 310 308 307 308 309 312 313 311 312 314 314 314 314 314 313 313 312 312 314 314 315 316 316 314 313 314 314 313 315 315 314 313 317 316 315 316 316 317 317
311 311 310 310 310 312 314 313 312 310 308 308 310 311 312 314 314 315 315 314 313 313 312 311 313 313 315 312 311 311 311 312 314 314 312 312 313 312 317 316 316 316 317 317 316
320 320 319 318 313 309 310 312 314 313 310 310 312 315 314 315 314 314 314 313 313 312 311 311 312 311 311 310 312 311 312 312 313 314 312 311 312 313 315 314 315 316 316 316 316
322 322 322 322 321 319 311 309 311 312 312 313 314 313 314 315 315 314 314 312 312 312 311 312 310 312 311 312 312 312 312 312 312 313 313 313 313 313 314 312 313 315 316 316 317
322 322 322 322 322 312 310 308 310 309 308 309 310 309 310 313 315 314 313 312 312 311 311 312 312 311 311 311 312 312 313 314 313 313 311 312 312 312 312 313 313 314 315 316 317
323 322 322 321 320 321 316 309 308 308 311 309 309 309 309 310 314 314 313 312 310 310 311 312 312 313 313 313 314 313 313 313 312 312 310 310 311 311 311 313 314 314 316 316 316
323 323 322 323 320 321 316 310 308 309 304 308 311 312 311 312 311 312 313 313 310 311 310 311 312 312 312 313 313 314 311 312 312 313 314 310 314 311 311 311 311 313 314 316 317
323 323 322 321 321 321 317 307 309 308 309 310 309 311 312 310 309 311 311 311 310 312 311 312 312 311 312 313 310 313 311 311 312 311 312 313 312 313 310 310 310 311 315 317 316
324 323 323 322 322 320 321 309 309 305 307 309 309 311 311 311 310 309 310 310 310 310 309 310 311 312 311 310 311 310 312 311 310 308 312 311 313 314 309 312 310 311 313 316 316
323 321 322 322 322 321 321 310 310 306 308 311 311 311 311 311 310 307 308 308 308 310 308 309 309 309 310 311 309 311 312 312 312 310 314 310 311 314 311 309 310 311 313 316 315
321 322 322 322 321 321 320 310 316 314 311 313 311 310 312 311 312 308 309 308 306 308 309 311 311 309 308 311 311 309 312 314 313 312 313 308 310 312 311 312 313 314 316 315 312
317 318 319 320 321 320 315 313 320 313 314 314 313 315 311 310 311 309 307 308 308 307 311 310 311 309 307 309 311 310 311 311 313 305 308 313 310 309 310 308 308 309 311 310 312
312 312 314 315 317 315 310 320 315 314 314 312 317 315 316 313 310 312 310 310 310 308 310 310 312 308 306 307 307 308 307 312 312 314 312 312 310 312 312 311 310 307 306 310 311
308 310 313 315 317 311 312 313 315 314 314 313 315 314 312 311 309 310 310 309 308 310 308 308 311 310 305 306 308 305 308 308 309 312 314 314 313 308 309 310 310 308 309 309 310
306 310 313 315 313 312 315 313 314 314 313 312 312 312 314 316 316 315 314 311 310 310 310 309 311 313 311 306 306 307 310 311 312 313 308 311 313 310 310 309 310 310 312 312 312
308 310 312 313 315 315 311 312 313 314 314 313 314 313 313 314 315 312 313 312 312 310 311 311 311 314 312 309 304 306 306 309 309 309 312 313 313 311 311 308 308 307 310 312 311
305 308 310 312 312 312 313 313 313 312 312 313 313 313 313 313 313 314 311 311 311 311 312 312 311 314 317 314 310 310 309 308 308 310 311 312 312 312 312 312 312 312 311 311 311
302 304 306 305 310 310 311 311 312 311 311 312 313 313 314 315 314 314 313 312 311 311 310 312 312 311 312 313 313 313 312 311 311 311 312 311 309 310 310 310 310 310 310 310 310
299 301 301 302 303 306 307 308 309 309 309 310 310 311 310 310 312 313 313 312 312 309 310 309 312 312 313 311 311 313 312 312 311 311 311 311 312 311 310 310 310 310 310 309 309
296 297 297 299 299 301 301 304 305 303 303 306 302 303 304 305 306 304 303 302 305 311 311 311 310 312 314 311 312 313 312 312 312 311 311 311 310 310 310 310 310 311 310 310 310